• In Belarus
  • List of Countries
  • For 7 days
  • Water Temperature
  • Satellite Maps
  • Weather Map
  • Weather Widgets
  • user-avatar
    Login

    Hourly Weather Pryvillya

    Today, 24 March, Sunday

    Time Temperature Precipitation Wind Pressure Humidity
    00:00 -2°C° 0 mm 6 mps 749 mmHg 85%
    01:00 -1°C° 0.1 mm 5 mps 749 mmHg 85%
    02:00 -1°C° 0.1 mm 5 mps 749 mmHg 86%
    03:00 -1°C° 0 mm 5 mps 748 mmHg 82%
    04:00 -1°C° 0.1 mm 5 mps 749 mmHg 82%
    05:00 -1°C° 0.1 mm 5 mps 749 mmHg 83%
    06:00 -1°C° 0.1 mm 5 mps 749 mmHg 83%
    07:00 -1°C° 0 mm 5 mps 749 mmHg 82%
    08:00 0°C° 0 mm 5 mps 749 mmHg 80%
    09:00 0°C° 0 mm 5 mps 749 mmHg 79%
    10:00 +1°C° 0.1 mm 5 mps 749 mmHg 74%
    11:00 +1°C° 0.1 mm 5 mps 749 mmHg 70%
    12:00 +2°C° 0.1 mm 5 mps 749 mmHg 65%
    13:00 +3°C° 0 mm 4 mps 749 mmHg 64%
    14:00 +4°C° 0 mm 4 mps 748 mmHg 62%
    15:00 +4°C° 0 mm 4 mps 748 mmHg 61%
    16:00 +4°C° 0 mm 4 mps 748 mmHg 62%
    17:00 +4°C° 0 mm 3 mps 748 mmHg 64%
    18:00 +4°C° 0 mm 3 mps 748 mmHg 65%
    19:00 +3°C° 0 mm 3 mps 748 mmHg 68%
    20:00 +3°C° 0 mm 2 mps 748 mmHg 71%
    21:00 +3°C° 0 mm 2 mps 748 mmHg 74%
    22:00 +3°C° 0 mm 2 mps 748 mmHg 74%
    23:00 +2°C° 0 mm 3 mps 748 mmHg 75%

    Tomorrow, 25 March, Monday

    Time Temperature Precipitation Wind Pressure Humidity
    00:00 +2°C° 0 mm 3 mps 748 mmHg 75%
    01:00 +2°C° 0 mm 3 mps 748 mmHg 76%
    02:00 +2°C° 0 mm 3 mps 748 mmHg 77%
    03:00 +3°C° 0 mm 4 mps 748 mmHg 77%
    04:00 +2°C° 0 mm 3 mps 748 mmHg 81%
    05:00 +1°C° 0 mm 3 mps 748 mmHg 85%
    06:00 0°C° 0 mm 3 mps 748 mmHg 89%
    07:00 +1°C° 0 mm 3 mps 748 mmHg 84%
    08:00 +2°C° 0 mm 3 mps 748 mmHg 79%
    09:00 +4°C° 0 mm 3 mps 748 mmHg 74%
    10:00 +5°C° 0 mm 3 mps 748 mmHg 65%
    11:00 +7°C° 0 mm 2 mps 748 mmHg 56%
    12:00 +8°C° 0 mm 2 mps 748 mmHg 47%
    13:00 +9°C° 0 mm 2 mps 748 mmHg 44%
    14:00 +9°C° 0 mm 2 mps 747 mmHg 41%
    15:00 +10°C° 0 mm 2 mps 747 mmHg 38%
    16:00 +11°C° 0 mm 1 mps 747 mmHg 40%
    17:00 +10°C° 0 mm 1 mps 747 mmHg 41%
    18:00 +10°C° 0 mm 1 mps 747 mmHg 42%
    19:00 +10°C° 0 mm 1 mps 747 mmHg 45%
    20:00 +9°C° 0 mm 1 mps 747 mmHg 48%
    21:00 +8°C° 0 mm 2 mps 747 mmHg 50%
    22:00 +7°C° 0 mm 2 mps 747 mmHg 57%
    23:00 +7°C° 0 mm 3 mps 747 mmHg 64%

    Day after tomorrow, 26 March, Tuesday

    Time Temperature Precipitation Wind Pressure Humidity
    00:00 +5°C° 0 mm 3 mps 747 mmHg 71%
    01:00 +5°C° 0.2 mm 4 mps 747 mmHg 73%
    02:00 +5°C° 0.2 mm 4 mps 747 mmHg 76%
    03:00 +5°C° 0.2 mm 4 mps 747 mmHg 79%
    04:00 +5°C° 0.2 mm 4 mps 747 mmHg 79%
    05:00 +5°C° 0.2 mm 5 mps 746 mmHg 79%
    06:00 +5°C° 0.2 mm 5 mps 746 mmHg 79%
    07:00 +4°C° 0 mm 6 mps 746 mmHg 76%
    08:00 +5°C° 0 mm 6 mps 746 mmHg 74%
    09:00 +5°C° 0 mm 7 mps 747 mmHg 71%
    10:00 +7°C° 0 mm 6 mps 747 mmHg 69%
    11:00 +7°C° 0 mm 6 mps 747 mmHg 67%
    12:00 +8°C° 0 mm 6 mps 747 mmHg 65%
    13:00 +8°C° 0.3 mm 6 mps 747 mmHg 68%
    14:00 +7°C° 0.3 mm 6 mps 746 mmHg 71%
    15:00 +7°C° 0.3 mm 6 mps 746 mmHg 74%
    16:00 +7°C° 0.4 mm 5 mps 746 mmHg 77%
    17:00 +7°C° 0.4 mm 5 mps 746 mmHg 80%
    18:00 +6°C° 0.4 mm 5 mps 746 mmHg 83%
    19:00 +6°C° 0.1 mm 4 mps 746 mmHg 85%
    20:00 +6°C° 0.1 mm 4 mps 746 mmHg 87%
    21:00 +5°C° 0.1 mm 4 mps 747 mmHg 89%
    22:00 +5°C° 0 mm 4 mps 747 mmHg 87%
    23:00 +4°C° 0 mm 3 mps 747 mmHg 86%

    27 March, Wednesday

    Time Temperature Precipitation Wind Pressure Humidity
    00:00 +4°C° 0 mm 3 mps 747 mmHg 84%
    01:00 +3°C° 0 mm 3 mps 747 mmHg 84%
    02:00 +4°C° 0 mm 2 mps 747 mmHg 84%
    03:00 +3°C° 0 mm 2 mps 747 mmHg 84%
    04:00 +2°C° 0 mm 2 mps 747 mmHg 83%
    05:00 +3°C° 0 mm 1 mps 747 mmHg 82%
    06:00 +2°C° 0 mm 1 mps 747 mmHg 82%
    07:00 +3°C° 0 mm 2 mps 747 mmHg 73%
    08:00 +3°C° 0 mm 4 mps 747 mmHg 65%
    09:00 +3°C° 0 mm 5 mps 747 mmHg 57%
    10:00 +3°C° 0.1 mm 6 mps 747 mmHg 57%
    11:00 +1°C° 0.1 mm 8 mps 747 mmHg 57%
    12:00 +1°C° 0.1 mm 9 mps 747 mmHg 58%
    13:00 +1°C° 0 mm 9 mps 748 mmHg 53%
    14:00 +2°C° 0 mm 9 mps 748 mmHg 49%
    15:00 +3°C° 0 mm 10 mps 749 mmHg 45%
    16:00 +2°C° 0 mm 9 mps 749 mmHg 47%
    17:00 +1°C° 0 mm 9 mps 750 mmHg 48%
    18:00 0°C° 0 mm 9 mps 751 mmHg 50%
    19:00 0°C° 0 mm 7 mps 752 mmHg 54%
    20:00 0°C° 0 mm 5 mps 753 mmHg 57%
    21:00 -1°C° 0 mm 4 mps 754 mmHg 61%
    22:00 -1°C° 0 mm 4 mps 754 mmHg 63%
    23:00 -2°C° 0 mm 4 mps 755 mmHg 66%

    28 March, Thursday

    Time Temperature Precipitation Wind Pressure Humidity
    00:00 -2°C° 0 mm 4 mps 755 mmHg 68%
    01:00 -2°C° 0 mm 4 mps 755 mmHg 69%
    02:00 -3°C° 0 mm 4 mps 756 mmHg 69%
    03:00 -3°C° 0 mm 4 mps 756 mmHg 70%
    04:00 -3°C° 0 mm 4 mps 757 mmHg 70%
    05:00 -3°C° 0 mm 4 mps 757 mmHg 71%
    06:00 -3°C° 0 mm 4 mps 757 mmHg 71%
    07:00 -2°C° 0 mm 4 mps 758 mmHg 67%
    08:00 -1°C° 0 mm 5 mps 758 mmHg 62%
    09:00 0°C° 0 mm 5 mps 758 mmHg 57%
    10:00 +1°C° 0 mm 5 mps 759 mmHg 54%
    11:00 +2°C° 0 mm 5 mps 759 mmHg 51%
    12:00 +3°C° 0 mm 5 mps 759 mmHg 47%
    13:00 +3°C° 0 mm 5 mps 759 mmHg 46%
    14:00 +5°C° 0 mm 5 mps 758 mmHg 45%
    15:00 +5°C° 0 mm 5 mps 758 mmHg 45%
    16:00 +5°C° 0 mm 5 mps 758 mmHg 45%
    17:00 +4°C° 0 mm 4 mps 758 mmHg 46%
    18:00 +4°C° 0 mm 4 mps 758 mmHg 47%
    19:00 +3°C° 0 mm 3 mps 759 mmHg 51%
    20:00 +2°C° 0 mm 3 mps 759 mmHg 55%
    21:00 +2°C° 0 mm 2 mps 759 mmHg 60%
    22:00 +1°C° 0 mm 2 mps 759 mmHg 61%
    23:00 +2°C° 0 mm 1 mps 759 mmHg 62%

    29 March, Friday

    Time Temperature Precipitation Wind Pressure Humidity
    00:00 +2°C° 0 mm 1 mps 759 mmHg 63%
    01:00 +1°C° 0 mm 2 mps 759 mmHg 63%
    02:00 -1°C° 0 mm 2 mps 759 mmHg 63%
    03:00 -1°C° 0 mm 2 mps 758 mmHg 64%
    04:00 -1°C° 0 mm 2 mps 758 mmHg 65%
    05:00 -1°C° 0 mm 2 mps 758 mmHg 66%
    06:00 -1°C° 0 mm 3 mps 757 mmHg 67%
    07:00 -1°C° 0 mm 4 mps 757 mmHg 61%
    08:00 +1°C° 0 mm 5 mps 757 mmHg 54%
    09:00 +2°C° 0 mm 6 mps 756 mmHg 47%
    10:00 +4°C° 0 mm 6 mps 756 mmHg 46%
    11:00 +5°C° 0 mm 7 mps 755 mmHg 44%
    12:00 +6°C° 0 mm 7 mps 754 mmHg 42%
    13:00 +7°C° 0 mm 8 mps 753 mmHg 44%
    14:00 +7°C° 0 mm 8 mps 752 mmHg 46%
    15:00 +9°C° 0 mm 8 mps 751 mmHg 48%
    16:00 +7°C° 0.1 mm 8 mps 751 mmHg 54%
    17:00 +8°C° 0.1 mm 7 mps 750 mmHg 60%
    18:00 +6°C° 0.1 mm 7 mps 750 mmHg 66%
    19:00 +5°C° 0.3 mm 6 mps 750 mmHg 68%
    20:00 +5°C° 0.3 mm 5 mps 750 mmHg 69%
    21:00 +4°C° 0.3 mm 4 mps 750 mmHg 71%
    22:00 +3°C° 0 mm 4 mps 751 mmHg 73%
    23:00 +1°C° 0 mm 4 mps 751 mmHg 76%
    Show more